This is the latest recevied weather packets stored in our database for station/object KC3ROS. If no packets are shown the sender has not sent any weather packets the latest 10 day(s).
| Time | Temp. | Humidity | Pressure | Rain* | Wind** | Luminosity | Snow |
|---|---|---|---|---|---|---|---|
| 1778073724 | 7.78° C | 99% | 1006.8 hPa | 0 mm | - | 30 W/m² | - |
| 1778073422 | 7.78° C | 99% | 1006.7 hPa | 0.51 mm | - | 42 W/m² | - |
| 1778073117 | 7.78° C | 99% | 1006.8 hPa | 0.51 mm | - | 41 W/m² | - |
| 1778072815 | 8.33° C | 99% | 1006.9 hPa | 0 mm | - | 24 W/m² | - |
| 1778072512 | 8.33° C | 99% | 1006.8 hPa | 0.51 mm | - | 19 W/m² | - |
| 1778072210 | 8.33° C | 99% | 1006.6 hPa | 0.51 mm | - | 21 W/m² | - |
| 1778071907 | 8.33° C | 99% | 1006.4 hPa | 0 mm | - | 18 W/m² | - |
| 1778071605 | 8.33° C | 99% | 1005.9 hPa | 0 mm | - | 13 W/m² | - |
| 1778071303 | 8.33° C | 99% | 1006.1 hPa | 0 mm | - | 12 W/m² | - |
| 1778071000 | 8.33° C | 99% | 1005.8 hPa | 0 mm | - | 19 W/m² | - |
| 1778070699 | 8.33° C | 99% | 1005.3 hPa | 0.51 mm | - | 27 W/m² | - |
| 1778070395 | 8.33° C | 99% | 1005.3 hPa | 0 mm | - | 53 W/m² | - |
| 1778070093 | 8.33° C | 99% | 1005.9 hPa | 0 mm | - | 23 W/m² | - |
| 1778069790 | 8.89° C | 99% | 1006.2 hPa | 0 mm | - | 14 W/m² | - |
| 1778069486 | 8.89° C | 99% | 1006.1 hPa | 0.51 mm | - | 12 W/m² | - |
| 1778069185 | 8.33° C | 99% | 1006.1 hPa | 0.51 mm | - | 15 W/m² | - |
| 1778068881 | 8.89° C | 99% | 1006 hPa | 0 mm | - | 12 W/m² | - |
| 1778068580 | 8.89° C | 99% | 1006 hPa | 0 mm | - | 10 W/m² | - |
| 1778068278 | 8.89° C | 99% | 1006 hPa | 0 mm | - | 9 W/m² | - |
| 1778067975 | 8.89° C | 99% | 1006.1 hPa | 0 mm | - | 6 W/m² | - |
| 1778067673 | 8.89° C | 99% | 1006 hPa | 0 mm | - | 8 W/m² | - |
| 1778067371 | 9.44° C | 99% | 1005.8 hPa | 0.51 mm | - | 7 W/m² | - |
| 1778067068 | 9.44° C | 99% | 1005.1 hPa | 0.51 mm | - | 6 W/m² | - |
| 1778066764 | 9.44° C | 99% | 1005.1 hPa | 0 mm | - | 7 W/m² | - |
| 1778066462 | 9.44° C | 99% | 1005.1 hPa | 0.51 mm | - | 7 W/m² | - |
* Rain latest hour (hover to see other rain measurements)
** Current wind speed in m/s (hover to see current wind gust speed)